Regional Weather Roundup
Issued by NWS Glasgow, MT

Home | Current Version | Previous Version | Text Only | Print | Product List | Glossary On
Versions: 1 2 3 4 5 6 7 8 9 10 11 12 13 14 15 16 17 18 19 20 21 22 23 24 25 26 27
000
ASUS45 KGGW 242115
RWRGGW
HOURLY REGIONAL WEATHER ROUNDUP FOR NORTHEAST MONTANA
NATIONAL WEATHER SERVICE GLASGOW MONTANA
300 PM MDT SUN SEP 24 2017

NOTE: "FAIR" INDICATES FEW OR NO CLOUDS BELOW 12,000 FEET WITH NO
SIGNIFICANT WEATHER AND/OR OBSTRUCTIONS TO VISISBILITY.

NORTHEAST MONTANA


CITY           SKY/WX    TMP DP  RH WIND       PRES   REMARKS
GLASGOW        CLOUDY    53  37  54 NW6       30.11R
WOLF POINT     CLOUDY    56  34  43 N7        30.11R
JORDAN           N/A     51  38  60 SE6       30.11S
WINNETT          N/A     53  33  46 E3          N/A
SIDNEY         CLOUDY    47  43  86 SE3       30.12S
GLENDIVE       LGT RAIN  46  41  81 S5        30.13S
SCOBEY           N/A     53  31  43 N7        30.08S

FORT PECK REPORTS


CITY           SKY/WX    TMP DP  RH WIND       PRES   REMARKS
FORT PECK        N/A     52  39  61 SW5         N/A
THE PINES        N/A     53  39  59 S3          N/A

SOUTHEAST MONTANA


CITY           SKY/WX    TMP DP  RH WIND       PRES   REMARKS
BILLINGS       PTSUNNY   53  34  48 NE7       30.10S
MILES CITY     CLOUDY    49  38  65 E8        30.12S
BAKER          CLOUDY    43  40  89 N9        30.12R
LIVINGSTON     CLOUDY    48  36  63 NE9       30.08S

CENTRAL MONTANA


CITY           SKY/WX    TMP DP  RH WIND       PRES   REMARKS
HAVRE          MOSUNNY   59  39  47 SE9       30.06F
LEWISTOWN      CLOUDY    50  34  54 E5        30.09S
GREAT FALLS    SUNNY     56  27  32 CALM      30.06F
CUT BANK       SUNNY     58  23  26 VRB3      30.03F
HELENA         SUNNY     57  25  29 NE7       30.06F
BUTTE          CLOUDY    48  29  47 CALM      30.09S
BOZEMAN        CLOUDY    51  32  48 VRB6      30.08F

WESTERN MONTANA


CITY           SKY/WX    TMP DP  RH WIND       PRES   REMARKS
MISSOULA       SUNNY     59  36  42 NW5       30.08F
KALISPELL      NOT AVBL

NORTH DAKOTA


CITY           SKY/WX    TMP DP  RH WIND       PRES   REMARKS
WILLISTON      CLOUDY    48  41  76 N7        30.11S
DICKINSON      CLOUDY    47  41  80 NW10      30.07R
MINOT          CLOUDY    51  45  79 NW9       30.05R
BISMARCK       CLOUDY    52  47  83 N15G24    30.04R

SOUTHERN SASKATCHEWAN


CITY           SKY/WX    TMP DP  RH WIND       PRES   REMARKS
REGINA         PTSUNNY   54  32  43 N7        30.10R
ESTEVAN        CLOUDY    50  41  71 N5        30.09R
SWIFT CURRENT    N/A     57  32  38 S7        30.06F





USA.gov is the U.S. government's official web portal to all federal, state and local government web resources and services.